Regional Weather Roundup
Issued by NWS

Home | Current Version | Previous Version | Text Only | Print | Product List | Glossary On
Versions: 1 2 3 4 5 6 7 8 9 10 11 12 13 14 15 16 17 18 19 20 21 22 23 24 25 26 27 28 29 30 31 32 33 34 35 36 37 38 39 40 41 42 43 44 45 46 47 48 49 50
000
ASUS43 KDMX 031607
RWRIA

WEATHER ROUNDUP FOR IOWA
NATIONAL WEATHER SERVICE DES MOINES IA
1100 AM CDT SUN MAY 03 2015

NOTE: "FAIR" INDICATES FEW OR NO CLOUDS BELOW 12,000 FEET WITH NO
SIGNIFICANT WEATHER AND/OR OBSTRUCTIONS TO VISIBILITY.

* - THESE STATIONS ARE NOT NWS STATIONS...THUS NOT UNDER NWS
QUALITY CONTROL.  THEY ALSO DO NOT REPORT WEATHER SUCH
AS PRECIPITATION OR FOG.

IAZ001>003-012>014-020>022-031>034-043>046-031700-
   NORTHWEST IOWA

CITY           SKY/WX    TMP DP  RH WIND       PRES   REMARKS
CARROLL *      SUNNY     75  57  53 SW15G21   29.78S
CHEROKEE *     SUNNY     73  59  60 SW6       29.76S
DENISON *      SUNNY     73  59  60 SW9G17    29.75S
LE MARS *      SUNNY     75  57  53 S12G17    29.76R
ORANGE CITY *  SUNNY     72  55  56 SW12      29.76S
SHELDON *      SUNNY     75  59  57 SW14G21   29.76R
SIOUX CITY     MOSUNNY   74  57  55 SE6       29.74F
SPENCER        SUNNY     75  54  47 SW12G23   29.78S
STORM LAKE *   SUNNY     75  55  50 SW12G21   29.78S
$$

IAZ055>058-069>071-079>083-090>094-031700-
   SOUTHWEST IOWA

CITY           SKY/WX    TMP DP  RH WIND       PRES   REMARKS
ATLANTIC *     SUNNY     72  61  68 SW16      29.78S
AUDUBON *      SUNNY     72  63  73 S10       29.79F
CLARINDA *     SUNNY     73  61  64 SW17      29.80S
COUNCIL BLFS * SUNNY     72  63  73 SW14      29.76S
CRESTON *      SUNNY     72  61  68 S20G26    29.81R
HARLAN  *      SUNNY     70  64  83 S16       29.80S
LAMONI         SUNNY     72  59  63 S14G22    29.83S
RED OAK *      SUNNY     73  61  64 S18       29.77S
SHENANDOAH *   SUNNY     73  61  64 S17G23    29.78R
$$

IAZ047>049-059>061-072>074-084-031700-
   CENTRAL IOWA

CITY           SKY/WX    TMP DP  RH WIND       PRES   REMARKS
AMES           MOSUNNY   71  59  65 SW6       29.81S
ANKENY *       SUNNY     73  59  60 SW9       29.81S
CHARITON *     SUNNY     70  59  68 S13       29.83F
DES MOINES     CLOUDY    75  58  55 S14       29.81S
GRINNELL*      MOSUNNY   70  59  68 S7        29.85R
KNOXVILLE *    SUNNY     72  57  60 S17       29.82S
MARSHALLTOWN   MOSUNNY   69  59  70 S10       29.83R
PELLA *        SUNNY     72  61  68 S12       29.85R
PERRY *          N/A     75  55  50 SW14G20   29.80S
$$

IAZ004>006-015-016-023>025-035-036-031700-
   NORTH CENTRAL IOWA

CITY           SKY/WX    TMP DP  RH WIND       PRES   REMARKS
ALGONA *       SUNNY     72  57  60 SW14G20   29.81R
CLARION *      SUNNY     73  57  56 SW12G20   29.81S
ESTHERVILLE    MOSUNNY   73  53  49 S13G18    29.78S
FORT DODGE *   MOSUNNY   73  59  60 SW10G16   29.80F
MASON CITY     MOSUNNY   74  54  49 S10       29.82F
FOREST CITY *  SUNNY     72  54  53 SW14      29.81S
IOWA FALLS *     N/A     72  59  64 SW10G16   29.83S
$$

IAZ007>011-017>019-026>030-037>042-050>054-066-031700-
   NORTHEAST IOWA

CITY           SKY/WX    TMP DP  RH WIND       PRES   REMARKS
CEDAR RAPIDS   CLOUDY    57  55  93 VRB6      29.89R
CHARLES CITY * MOSUNNY   68  57  68 SW10G22   29.84S
CLINTON *        N/A     59  54  82 E9        29.93F
DECORAH *      MOSUNNY   70  54  56 S12G20    29.83F
DUBUQUE        CLOUDY    62  52  69 S17G24    29.89R
MONTICELLO *   SUNNY     61  57  88 S9        29.90R
OELWEIN *      SUNNY     68  54  60 S17       29.85F
WATERLOO       MOSUNNY   68  56  65 S10       29.84R
$$

IAZ064-065-067-068-078-031700-
   EAST CENTRAL IOWA

CITY           SKY/WX    TMP DP  RH WIND       PRES   REMARKS
DAVENPORT      CLOUDY    70  52  52 S15       29.90F
IOWA CITY      CLOUDY    61  55  81 E5        29.89S
MT. PLEASANT * CLOUDY    66  55  68 S16G22    29.87F
MUSCATINE *    PTSUNNY   70  57  64 S9G17     29.88S
QUAD CITIES    CLOUDY    70  54  56 S13       29.87F
$$

IAZ062-063-075>077-085>089-095>099-031700-
   SOUTHEAST IOWA

CITY           SKY/WX    TMP DP  RH WIND       PRES   REMARKS
BURLINGTON     CLOUDY    70  54  56 S16       29.90F
FAIRFIELD *    MOSUNNY   68  55  64 SW18      29.88R
FORT MADISON * SUNNY     70  54  56 S13       29.92F
KEOKUK *       SUNNY     72  55  56 S15       29.90F
OSKALOOSA *      N/A     68  57  68 S15       29.87R
CENTERVILLE *  SUNNY     70  59  68 S20       29.88S
OTTUMWA        MOSUNNY   65  56  72 S17G24    29.86R
WASHINGTON *   MOSUNNY   68  64  88 S15G23    29.87S
$$

ABBREVIATIONS USED IN REMARKS
   TC - TEMPERATURES IN CELSIUS
  WCI - WIND CHILL INDEX
   HX - HEAT INDEX
  VSB - VISIBILITY
$$




USA.gov is the U.S. government's official web portal to all federal, state and local government web resources and services.